sat.trackr.live / text

‹ back to catalog

STARLINK-32585

NORAD 61953 · 2024-209Q

PAYLOAD ACTIVE UNKNOWN

§ Identity

Operator
Country
US
Launch date
2024-11-14
Launch site
AFWTR
Launch vehicle
Mass (kg)
RCS (m²)

Purposes: comms

External: N2YO · Heavens-Above · Gunter

§ Orbital elements

Epoch: 2026-05-25T03:21:09.637632Z

Period
93.37 min
Inclination
53.1579°
Eccentricity
0.0001089
Mean motion
15.42181317 rev/d
Perigee alt
438.9 km
Apogee alt
440.4 km
Semi-major
6,817.8 km
B*
8.7167e-4
RAAN
145.0337°
Arg perigee
66.0057°
Mean anomaly
294.1063°
Rev number
8,663

§ Raw data

STARLINK-325851 61953U 24209Q   26145.13969488  .00037734  00000+0  87167-3 0  99922 61953  53.1579 145.0337 0001089  66.0057 294.1063 15.42181317 86632

JSON: /api/v1/satellites/61953 · /tle

For live sub-satellite position, see the globe view (requires WebGL).

§ Visibility from observer

Set your observer location to see the next 7 days of passes ≥ 10°. The values pass through the URL so the page stays shareable.

No JS? Fill the form by hand. The geolocation button needs JavaScript.